Regional Weather Roundup
Issued by NWS San Diego, CA

Home | Current Version | Previous Version | Text Only | Print | Product List | Glossary On
Versions: 1 2 3 4 5 6 7 8 9 10 11 12 13 14 15 16 17 18 19 20 21 22 23 24 25 26 27 28 29 30 31 32 33 34 35 36 37 38 39 40 41 42 43 44 45 46 47 48
000
ASUS46 KSGX 040211
RWRSGX

SAN DIEGO HOURLY WEATHER ROUNDUP
NATIONAL WEATHER SERVICE SAN DIEGO CA
700 PM PDT THU SEP 03 2015

NOTE: "FAIR" INDICATES FEW OR NO CLOUDS BELOW 12,000 FEET WITH NO
SIGNIFICANT WEATHER AND/OR OBSTRUCTIONS TO VISIBILITY.

CAZ042-043-060-061-PZZ750-775-040300-

GREATER SAN DIEGO AREA

CITY           SKY/WX    TMP DP  RH WIND       PRES   REMARKS
LINDBERGH FLD  PTCLDY    72  57  59 W7        29.85S
POINT LOMA       N/A     71  57  62 W7          N/A
NATIONAL CITY    N/A     71  60  67 CALM      29.85S
CHULA VISTA      N/A     71  61  71 W8        29.77S
IMPERIAL BEACH PTCLDY    72  57  58 W7        29.85S
BROWN FIELD    CLEAR     68  57  68 W7        29.85R
MIRAMAR MCAS   PTCLDY    72  56  57 W8        29.84S
MONTGOMERY FLD CLEAR     70  57  63 SW8       29.85S

$$

NORTH SAN DIEGO COUNTY

CITY           SKY/WX    TMP DP  RH WIND       PRES   REMARKS
CAMP PENDLETON CLEAR     69  57  65 SW6       29.83S
OCEANSIDE AP   CLEAR     70  58  65 W8        29.83S
OCEANSIDE HBR    N/A     70  62  75 SW10      29.86S
VISTA            N/A     69  60  71 W7        29.82R
CARLSBAD       CLEAR     69  58  67 W7        29.84R
DEL MAR          N/A     69  60  72 CALM      29.87S
LA JOLLA SCRIP   N/A    N/A N/A N/A W1        29.81F
FALLBROOK        N/A     70  60  71 SW3       29.82R
ESCONDIDO        N/A     71  59  66 SW5       29.86R
SAN MARCOS       N/A     68  59  71 CALM      29.82R
POWAY            N/A     71  59  64 CALM      29.84S

$$

EAST SAN DIEGO COUNTY

CITY           SKY/WX    TMP DP  RH WIND       PRES   REMARKS
RAMONA         CLEAR     68  55  63 W10       29.86R
LA MESA          N/A     71  58  64 SW3       29.77S
JAMUL            N/A     70  59  69 CALM      29.83R
DESCANSO N       N/A     69  54  58 W3        29.68S
CAMPO            N/A     70  52  52 SW10      29.86R

$$

ORANGE COUNTY AND THE LOS ANGELES BASIN

CITY           SKY/WX    TMP DP  RH WIND       PRES   REMARKS
JOHN WAYNE AP  PTCLDY    70  59  68 SW8       29.83S
LAGUNA BEACH     N/A     71  60  67 SW3       29.79S
LAKE FOREST FR   N/A     70  57  63 CALM      29.73R
SANTA ANA        N/A     74  60  61 CALM      29.77S
HUNTINGTON BCH   N/A     71  62  73 SW10      29.85S
LOS ALAMITOS   PTCLDY    71  60  70 S7        29.82S
FULLERTON      CLEAR     73  59  61 S8        29.81S
L.A. AP        PTCLDY    70  57  63 W9        29.83S
L.A. DOWNTOWN  CLEAR     72  57  59 W5        29.82S

$$

THE INLAND EMPIRE

CITY           SKY/WX    TMP DP  RH WIND       PRES   REMARKS
CORONA         CLEAR     72  58  61 W14       29.80S
CHINO          CLEAR     74  57  55 W16       29.82R
ONTARIO        CLEAR     74  56  53 W13G22    29.81S
RIVERSIDE AP   CLEAR     74  57  55 W10       29.81R
MORENO VALLEY    N/A     78  60  54 SW3       29.79R
MARCH ARB      CLEAR     75  57  52 NW10      29.82S
HORSETHIEF CYN   N/A     76  54  44 NW8       29.82S
PERRIS           N/A     78  47  33 S6        29.81S
HEMET EAST       N/A     76  52  43 CALM      29.82S
FRENCH VALLEY  FAIR      70  55  60 SW13      29.84S
TEMECULA         N/A     72  59  63 SW8       29.78S

$$

SAN BERNARDINO AND RIVERSIDE COUNTY MOUNTAINS

CITY           SKY/WX    TMP DP  RH WIND       PRES   REMARKS
BIG BEAR AP    CLEAR     61  37  41 CALM      30.08S
PINE COVE        N/A     63  44  49 CALM      29.74F

$$

SOUTHERN DESERT INCLUDING THE COACHELLA VALLEY

CITY           SKY/WX    TMP DP  RH WIND       PRES   REMARKS
PALM SPRINGS   CLEAR     93  44  18 NW20G31   29.68R
THOUSAND PALMS   N/A     92  41  16 W15       29.64S
PALM DESERT      N/A     95  45  17 CALM        N/A
THERMAL        CLEAR     96  42  15 NW8       29.60S
BLYTHE         CLEAR    100  40  12 SW15      29.65R HX  95
IMPERIAL AP    CLEAR     97  45  16 W9        29.63R
EL CENTRO NAS  CLEAR     97  42  15 W15       29.65S
YUMA AZ        PTCLDY    98  50  19 S22       29.67R HX  95
MEXICALI       CLEAR     97  52  21 SE13      29.65

$$

UPPER DESERT

CITY           SKY/WX    TMP DP  RH WIND       PRES   REMARKS
VICTORVILLE AP CLEAR     75  45  33 S23G31    29.83R
HESPERIA         N/A     73  51  45 W8        29.82F
APPLE VALLEY     N/A     75  47  37 SW6G26    29.90S
PALMDALE       CLEAR     74  46  36 W21       29.82S
LANCASTER      CLEAR     75  44  33 W20       29.83R
EDWARDS AFB    PTCLDY    78  32  18 W26G33    29.77R
DAGGETT        CLEAR     89  34  14 SW23      29.72F
29 PALMS N     CLEAR     88  39  17 SW22      29.80R
NEEDLES        CLEAR    100  41  13 S15       29.66S HX  95

$$

REGIONAL REPORTS

CITY           SKY/WX    TMP DP  RH WIND       PRES   REMARKS
SANTA BARBARA  CLEAR     73  56  54 CALM      29.80F
SANDBERG       CLEAR     65  46  50 S14G22    29.95F
LAS VEGAS NV   PTCLDY    93  32  11 SW16G23   29.67R
PHOENIX AZ     MOCLDY    79  66  64 S25G35    29.81S
TIJUANA        CLEAR     70  54  56 W10       29.87S
ENSENADA NW      N/A     70  32  24 W6        29.82S

$$

OFFSHORE ISLANDS

CITY           SKY/WX    TMP DP  RH WIND       PRES   REMARKS
CATALINA ARPT  PTCLDY    61  56  83 W10       29.86F
SAN NICOLAS IS PTCLDY   N/A N/A N/A W13       29.84F

$$

MARINE AND OFFSHORE BUOY REPORTS

STATION/POSITION SKY/WX   TEMP    WIND        PRES    SWELL
                          AIR SEA DIR/SP/G            HT/PER/DIR
                          (F)     (DEG/KT/KT) (MB)    (FT/S/D)
TANNER BANKS               67 69  290/ 10/ 12 1010.4F   5/300/11
S CLEMENTE BASIN           68 72  280/ 10/ 12 1010.2F   3/240/11
SO. S. ROSA ISLA           66 67  320/ 19/ 23 1009.1S   5/11
W. S. BARBARA CH           64 67  320/ 21/ 23 1009.5F   3/280/11
M. S. BARBARA CH           69 72  270/ 14/ 16 1010.0F
S. MONICA BASIN            69 70  290/  6/  8 1009.8F   3/210/12
S PEDRO CHANNEL               74                N/A     2/240/12
DANA POINT                    75                N/A     2/210/12
OCEANSIDE OFFSHR              75                N/A     2/230/12
TORREY PINES OTR              74                N/A     2/220/12
LA JOLLA 1                 70 75  260/  5/  7 1010.4F
MISSION BAY BUOY              74                N/A     2/230/11
SAN DIEGO BAY                 78              1011.0F
POINT LOMA SOUTH              72                N/A     3/240/12

$$



USA.gov is the U.S. government's official web portal to all federal, state and local government web resources and services.